Location: Wolf Lake
(46.8518°N, 80.6381°W)
Time: 10:08:54
(UTC-04:00)

ISS - Pass Details

Date: 22 March 2026
Orbit: 416 x 425 km, 51.6° (Epoch: 19 April)

Event Time Altitude Azimuth Distance (km) Brightness Sun altitude
Rises 20:18:22 0° 289° (WNW) 2,389 2.3 -7.7°
Reaches altitude 10° 20:20:35 10° 298° (WNW) 1,521 0.5 -8.0°
Maximum altitude 20:23:48 37° 8° (N) 676 -2.7 -8.6°
Enters shadow 20:26:52 11° 77° (ENE) 1,465 -1.6 -9.1°
